| time (UTC) | temp F | wind direction | speed knots | gust knots | rain 1hr in | rain 24hr in | rain mn in | humidity % | barometer mb |
| 20260505053916 | 71 | 153 | 4.3 | 7.8 | 0.00 | 0.00 | 0.00 | 63 | 1004.6 |
| 20260505053413 | 71 | 228 | 6.1 | 10.4 | 0.00 | 0.00 | 0.00 | 63 | 1004.8 |
| 20260505052910 | 71 | 147 | 3.5 | 5.2 | 0.00 | 0.00 | 0.00 | 63 | 1004.7 |
| 20260505052406 | 71 | 228 | 7.0 | 13.0 | 0.00 | 0.00 | 0.00 | 62 | 1004.6 |
| 20260505051904 | 71 | 214 | 4.3 | 7.8 | 0.00 | 0.00 | 0.00 | 62 | 1004.1 |
| 20260505051401 | 71 | 187 | 3.5 | 10.4 | 0.00 | 0.00 | 0.00 | 62 | 1003.9 |
| 20260505050859 | 72 | 237 | 6.1 | 8.7 | 0.00 | 0.00 | 0.00 | 62 | 1003.9 |
| 20260505050357 | 72 | 207 | 7.0 | 8.7 | 0.00 | 0.00 | 0.00 | 62 | 1003.9 |
| 20260505041325 | 72 | 163 | 3.5 | 6.1 | 0.00 | 0.02 | 0.02 | 61 | 1003.8 |
| 20260505040821 | 72 | 159 | 3.5 | 7.8 | 0.00 | 0.02 | 0.02 | 61 | 1003.8 |
| 20260505040319 | 72 | 155 | 1.7 | 6.1 | 0.00 | 0.02 | 0.02 | 61 | 1003.9 |
| 20260505035816 | 72 | 143 | 1.7 | 7.0 | 0.00 | 0.02 | 0.02 | 61 | 1003.9 |
| 20260505035311 | 73 | 186 | 1.7 | 7.0 | 0.00 | 0.02 | 0.02 | 61 | 1004.1 |
| 20260505034809 | 73 | 177 | 5.2 | 7.8 | 0.00 | 0.02 | 0.02 | 60 | 1004.1 |
| 20260505034305 | 73 | 180 | 0.9 | 5.2 | 0.00 | 0.02 | 0.02 | 60 | 1004.3 |
| 20260505033803 | 73 | 153 | 1.7 | 5.2 | 0.00 | 0.02 | 0.02 | 60 | 1004.3 |
| 20260505033259 | 73 | 141 | 2.6 | 6.1 | 0.00 | 0.02 | 0.02 | 59 | 1004.3 |
| 20260505032758 | 74 | 178 | 2.6 | 12.2 | 0.00 | 0.02 | 0.02 | 59 | 1004.3 |
| 20260505032253 | 74 | 171 | 3.5 | 5.2 | 0.00 | 0.02 | 0.02 | 59 | 1004.2 |
| 20260505031751 | 74 | 161 | 3.5 | 5.2 | 0.00 | 0.02 | 0.02 | 59 | 1004.3 |
| 20260505031247 | 74 | 213 | 1.7 | 5.2 | 0.00 | 0.02 | 0.02 | 59 | 1004.2 |
| 20260505030744 | 74 | 195 | 1.7 | 6.1 | 0.00 | 0.02 | 0.02 | 58 | 1004.1 |
| 20260505030240 | 74 | 193 | 0.9 | 4.3 | 0.00 | 0.02 | 0.02 | 58 | 1004.4 |
| 20260505025736 | 75 | 166 | 1.7 | 4.3 | 0.00 | 0.02 | 0.02 | 58 | 1004.1 |
| 20260505025234 | 75 | 161 | 1.7 | 7.8 | 0.00 | 0.02 | 0.02 | 58 | 1004.1 |
| 20260505024732 | 75 | 187 | 2.6 | 3.5 | 0.00 | 0.02 | 0.02 | 57 | 1004.3 |
| 20260505024229 | 75 | 129 | 2.6 | 8.7 | 0.00 | 0.02 | 0.02 | 57 | 1004.0 |
| 20260505023726 | 75 | 180 | 1.7 | 6.1 | 0.00 | 0.02 | 0.02 | 57 | 1004.1 |
| 20260505023224 | 75 | 200 | 2.6 | 7.8 | 0.00 | 0.02 | 0.02 | 56 | 1003.9 |
| 20260505022721 | 75 | 219 | 1.7 | 4.3 | 0.00 | 0.02 | 0.02 | 57 | 1003.8 |
| 20260505022218 | 75 | 149 | 3.5 | 8.7 | 0.00 | 0.02 | 0.02 | 57 | 1003.6 |
| 20260505021714 | 75 | 175 | 2.6 | 4.3 | 0.00 | 0.02 | 0.02 | 57 | 1003.4 |
| 20260505021212 | 75 | 163 | 4.3 | 5.2 | 0.00 | 0.02 | 0.02 | 56 | 1003.4 |
| 20260505020707 | 75 | 123 | 1.7 | 4.3 | 0.00 | 0.02 | 0.02 | 57 | 1003.4 |
| 20260505020202 | 75 | 167 | 3.5 | 5.2 | 0.00 | 0.02 | 0.02 | 56 | 1003.2 |
| 20260505015700 | 75 | 142 | 2.6 | 4.3 | 0.00 | 0.02 | 0.02 | 56 | 1003.0 |
| 20260505015156 | 76 | 181 | 0.9 | 5.2 | 0.00 | 0.02 | 0.02 | 56 | 1003.1 |
| 20260505014654 | 75 | 155 | 2.6 | 3.5 | 0.00 | 0.02 | 0.02 | 57 | 1003.1 |
| 20260505014150 | 75 | 216 | 4.3 | 7.8 | 0.00 | 0.02 | 0.02 | 57 | 1002.9 |
| 20260505013648 | 75 | 165 | 4.3 | 4.3 | 0.00 | 0.02 | 0.02 | 57 | 1002.9 |
| 20260505013145 | 75 | 162 | 0.9 | 3.5 | 0.00 | 0.02 | 0.02 | 57 | 1002.9 |
| 20260505012643 | 75 | 176 | 2.6 | 3.5 | 0.00 | 0.02 | 0.02 | 57 | 1002.8 |
| 20260505012140 | 75 | 121 | 0.9 | 3.5 | 0.00 | 0.02 | 0.02 | 57 | 1002.8 |
| 20260505011636 | 76 | 162 | 2.6 | 4.3 | 0.00 | 0.02 | 0.02 | 57 | 1002.8 |
| 20260505011134 | 76 | 144 | 0.9 | 1.7 | 0.00 | 0.02 | 0.02 | 57 | 1002.5 |
| 20260505010633 | 76 | 177 | 2.6 | 7.8 | 0.00 | 0.02 | 0.02 | 57 | 1002.7 |
| 20260505010130 | 76 | 137 | 1.7 | 2.6 | 0.00 | 0.02 | 0.02 | 57 | 1002.7 |
| 20260505005626 | 76 | 164 | 1.7 | 3.5 | 0.00 | 0.02 | 0.02 | 57 | 1002.6 |
| 20260505005124 | 76 | 181 | 2.6 | 3.5 | 0.00 | 0.02 | 0.02 | 57 | 1002.6 |
| 20260505004621 | 76 | 184 | 0.9 | 2.6 | 0.00 | 0.02 | 0.02 | 56 | 1002.6 |
| 20260505004118 | 77 | 96 | 0.9 | 4.3 | 0.00 | 0.02 | 0.02 | 56 | 1002.5 |
| 20260505003615 | 77 | 181 | 1.7 | 4.3 | 0.00 | 0.02 | 0.02 | 56 | 1002.3 |
| 20260505003112 | 77 | 199 | 4.3 | 6.1 | 0.00 | 0.02 | 0.02 | 55 | 1002.3 |
| 20260505002608 | 77 | 225 | 1.7 | 3.5 | 0.00 | 0.02 | 0.02 | 56 | 1002.1 |
| 20260505002107 | 78 | 184 | 1.7 | 7.8 | 0.00 | 0.02 | 0.02 | 55 | 1002.4 |
| 20260505001603 | 78 | 195 | 1.7 | 3.5 | 0.00 | 0.02 | 0.02 | 54 | 1002.2 |
| 20260505001101 | 79 | 228 | 1.7 | 2.6 | 0.00 | 0.02 | 0.02 | 54 | 1002.4 |
| 20260505000558 | 78 | 169 | 1.7 | 7.8 | 0.00 | 0.02 | 0.02 | 54 | 1002.3 |
| 20260505000055 | 78 | 196 | 4.3 | 7.0 | 0.00 | 0.02 | 0.02 | 54 | 1002.2 |
| 20260504235552 | 79 | 196 | 1.7 | 6.1 | 0.00 | 0.02 | 0.02 | 54 | 1002.2 |
| 20260504235049 | 79 | 189 | 1.7 | 4.3 | 0.00 | 0.02 | 0.02 | 54 | 1002.4 |
| 20260504234545 | 79 | 231 | 6.1 | 7.0 | 0.00 | 0.02 | 0.02 | 53 | 1002.4 |
| 20260504234043 | 80 | 212 | 3.5 | 5.2 | 0.00 | 0.02 | 0.02 | 53 | 1002.3 |
| 20260504233538 | 80 | 160 | 2.6 | 7.0 | 0.00 | 0.02 | 0.02 | 52 | 1002.4 |
| 20260504233035 | 79 | 154 | 1.7 | 2.6 | 0.00 | 0.02 | 0.02 | 53 | 1002.3 |
| 20260504232532 | 80 | 215 | 3.5 | 7.0 | 0.00 | 0.02 | 0.02 | 52 | 1002.5 |
| 20260504232030 | 80 | 166 | 1.7 | 6.1 | 0.00 | 0.02 | 0.02 | 52 | 1002.5 |
| 20260504231526 | 80 | 227 | 7.8 | 8.7 | 0.00 | 0.02 | 0.02 | 52 | 1002.5 |
| 20260504231022 | 80 | 237 | 3.5 | 9.6 | 0.00 | 0.02 | 0.02 | 52 | 1002.6 |
| 20260504230519 | 80 | 161 | 1.7 | 9.6 | 0.00 | 0.02 | 0.02 | 51 | 1002.7 |
| 20260504230018 | 80 | 175 | 3.5 | 12.2 | 0.00 | 0.02 | 0.02 | 51 | 1002.7 |
| 20260504225514 | 80 | 211 | 5.2 | 8.7 | 0.00 | 0.02 | 0.02 | 53 | 1002.8 |
| 20260504225012 | 80 | 190 | 1.7 | 5.2 | 0.00 | 0.02 | 0.02 | 52 | 1002.7 |
| 20260504224508 | 80 | 205 | 4.3 | 4.3 | 0.00 | 0.02 | 0.02 | 52 | 1002.7 |
| 20260504224005 | 80 | 180 | 3.5 | 7.8 | 0.00 | 0.02 | 0.02 | 51 | 1002.6 |
| 20260504223502 | 80 | 211 | 2.6 | 6.1 | 0.00 | 0.02 | 0.02 | 51 | 1002.8 |
| 20260504222957 | 80 | 200 | 4.3 | 13.9 | 0.00 | 0.02 | 0.02 | 51 | 1002.9 |
| 20260504222455 | 80 | 218 | 3.5 | 5.2 | 0.00 | 0.02 | 0.02 | 52 | 1003.0 |
| 20260504221952 | 80 | 245 | 1.7 | 11.3 | 0.00 | 0.02 | 0.02 | 53 | 1003.0 |
| 20260504221449 | 80 | 164 | 2.6 | 10.4 | 0.00 | 0.02 | 0.02 | 53 | 1002.9 |
| 20260504220946 | 80 | 222 | 3.5 | 11.3 | 0.00 | 0.02 | 0.02 | 52 | 1002.8 |
| 20260504220442 | 81 | 231 | 4.3 | 7.8 | 0.00 | 0.02 | 0.02 | 53 | 1003.0 |
| 20260504215940 | 81 | 171 | 3.5 | 4.3 | 0.00 | 0.02 | 0.02 | 52 | 1003.2 |
| 20260504215436 | 81 | 176 | 2.6 | 7.8 | 0.00 | 0.02 | 0.02 | 54 | 1003.0 |
| 20260504214933 | 81 | 233 | 4.3 | 10.4 | 0.00 | 0.02 | 0.02 | 54 | 1003.0 |
| 20260504214429 | 82 | 217 | 2.6 | 4.3 | 0.00 | 0.02 | 0.02 | 52 | 1003.0 |
| 20260504213926 | 82 | 240 | 5.2 | 5.2 | 0.00 | 0.02 | 0.02 | 52 | 1003.0 |
| 20260504213422 | 81 | 202 | 2.6 | 9.6 | 0.00 | 0.02 | 0.02 | 53 | 1003.0 |
| 20260504212920 | 81 | 195 | 2.6 | 6.1 | 0.00 | 0.02 | 0.02 | 53 | 1003.0 |
| 20260504212415 | 82 | 164 | 2.6 | 5.2 | 0.00 | 0.02 | 0.02 | 53 | 1003.0 |
| 20260504211913 | 81 | 227 | 4.3 | 7.0 | 0.00 | 0.02 | 0.02 | 54 | 1003.0 |
| 20260504211409 | 81 | 210 | 2.6 | 8.7 | 0.00 | 0.02 | 0.02 | 54 | 1003.2 |
| 20260504210907 | 81 | 246 | 3.5 | 7.0 | 0.00 | 0.02 | 0.02 | 58 | 1003.2 |
| 20260504210404 | 81 | 172 | 2.6 | 7.8 | 0.00 | 0.02 | 0.02 | 59 | 1003.2 |
| 20260504205900 | 80 | 229 | 5.2 | 7.0 | 0.00 | 0.02 | 0.02 | 60 | 1003.2 |
| 20260504205358 | 80 | 206 | 3.5 | 7.8 | 0.00 | 0.02 | 0.02 | 62 | 1003.1 |
| 20260504204857 | 80 | 157 | 2.6 | 3.5 | 0.00 | 0.02 | 0.02 | 63 | 1003.2 |
| 20260504204354 | 79 | 140 | 0.9 | 7.8 | 0.00 | 0.02 | 0.02 | 63 | 1003.5 |
| 20260504203854 | 78 | 185 | 1.7 | 4.3 | 0.00 | 0.02 | 0.02 | 65 | 1003.6 |
| 20260504203350 | 78 | 204 | 3.5 | 4.3 | 0.00 | 0.02 | 0.02 | 63 | 1003.5 |
| 20260504202846 | 77 | 223 | 4.3 | 8.7 | 0.00 | 0.02 | 0.02 | 65 | 1003.6 |
| 20260504202343 | 77 | 227 | 1.7 | 3.5 | 0.00 | 0.02 | 0.02 | 65 | 1003.8 |
| 20260504201839 | 77 | 179 | 2.6 | 6.1 | 0.00 | 0.02 | 0.02 | 65 | 1003.8 |
| 20260504201337 | 77 | 258 | 1.7 | 3.5 | 0.00 | 0.02 | 0.02 | 63 | 1003.7 |
| 20260504200835 | 77 | 149 | 1.7 | 4.3 | 0.00 | 0.02 | 0.02 | 64 | 1004.0 |
| 20260504200331 | 75 | 196 | 5.2 | 7.8 | 0.00 | 0.02 | 0.02 | 64 | 1004.0 |
| 20260504195827 | 75 | 166 | 1.7 | 2.6 | 0.00 | 0.02 | 0.02 | 67 | 1004.1 |
| 20260504195323 | 74 | 150 | 1.7 | 4.3 | 0.00 | 0.02 | 0.02 | 70 | 1004.0 |
| 20260504194820 | 74 | 167 | 4.3 | 4.3 | 0.00 | 0.02 | 0.02 | 71 | 1004.2 |
| 20260504194316 | 73 | 143 | 2.6 | 5.2 | 0.00 | 0.02 | 0.02 | 71 | 1004.3 |
| 20260504193812 | 72 | 17 | 0.0 | 3.5 | 0.00 | 0.02 | 0.02 | 73 | 1004.3 |
| 20260504193310 | 72 | 160 | 3.5 | 5.2 | 0.00 | 0.02 | 0.02 | 71 | 1004.3 |
| 20260504192808 | 72 | 150 | 2.6 | 4.3 | 0.00 | 0.02 | 0.02 | 72 | 1004.4 |
| 20260504192306 | 71 | 177 | 1.7 | 4.3 | 0.00 | 0.02 | 0.02 | 74 | 1004.6 |
| 20260504191804 | 71 | 77 | 1.7 | 3.5 | 0.00 | 0.02 | 0.02 | 75 | 1004.6 |
| 20260504191301 | 69 | 89 | 0.9 | 5.2 | 0.00 | 0.02 | 0.02 | 76 | 1004.9 |
| 20260504190757 | 69 | 144 | 0.9 | 3.5 | 0.00 | 0.02 | 0.02 | 78 | 1004.4 |
| 20260504190253 | 66 | 138 | 2.6 | 2.6 | 0.00 | 0.02 | 0.02 | 81 | 1004.1 |
| 20260504185750 | 65 | 134 | 1.7 | 3.5 | 0.00 | 0.02 | 0.02 | 82 | 1004.0 |
| 20260504185247 | 64 | 124 | 1.7 | 4.3 | 0.02 | 0.02 | 0.02 | 83 | 1003.8 |
| 20260504184743 | 63 | 101 | 2.6 | 3.5 | 0.02 | 0.02 | 0.02 | 85 | 1003.9 |
| 20260504184239 | 64 | 128 | 2.6 | 4.3 | 0.00 | 0.01 | 0.01 | 84 | 1004.9 |
| 20260504183734 | 64 | 155 | 1.7 | 3.5 | 0.00 | 0.01 | 0.01 | 82 | 1005.6 |
| 20260504183232 | 65 | 140 | 1.7 | 4.3 | 0.00 | 0.01 | 0.01 | 81 | 1005.5 |
| 20260504182730 | 65 | 118 | 1.7 | 4.3 | 0.00 | 0.01 | 0.01 | 80 | 1005.9 |
| 20260504182227 | 65 | 137 | 1.7 | 2.6 | 0.00 | 0.01 | 0.01 | 79 | 1005.7 |
| 20260504181724 | 65 | 135 | 0.0 | 4.3 | 0.00 | 0.01 | 0.01 | 81 | 1005.7 |
| 20260504181221 | 65 | 154 | 0.9 | 4.3 | 0.00 | 0.01 | 0.01 | 82 | 1005.6 |
| 20260504180721 | 65 | 117 | 2.6 | 3.5 | 0.00 | 0.01 | 0.01 | 83 | 1005.6 |
| 20260504180219 | 64 | 168 | 1.7 | 2.6 | 0.00 | 0.01 | 0.01 | 84 | 1005.5 |
| 20260504175716 | 64 | 163 | 2.6 | 4.3 | 0.00 | 0.01 | 0.01 | 83 | 1005.5 |
| 20260504175212 | 64 | 106 | 2.6 | 2.6 | 0.00 | 0.01 | 0.01 | 83 | 1005.5 |
| 20260504174711 | 64 | 113 | 2.6 | 6.1 | 0.00 | 0.01 | 0.01 | 82 | 1005.5 |
| 20260504174208 | 64 | 133 | 0.0 | 5.2 | 0.00 | 0.01 | 0.01 | 81 | 1005.8 |
| 20260504173704 | 64 | 122 | 0.0 | 3.5 | 0.00 | 0.01 | 0.01 | 79 | 1005.7 |
| 20260504173202 | 64 | 141 | 2.6 | 2.6 | 0.00 | 0.01 | 0.01 | 79 | 1005.9 |
| 20260504172658 | 64 | 127 | 0.9 | 2.6 | 0.00 | 0.01 | 0.01 | 80 | 1005.8 |
| 20260504172155 | 64 | 78 | 2.6 | 6.1 | 0.00 | 0.01 | 0.01 | 78 | 1005.9 |
| 20260504171651 | 64 | 173 | 2.6 | 5.2 | 0.00 | 0.01 | 0.01 | 78 | 1006.1 |
| 20260504171148 | 64 | 174 | 6.1 | 7.8 | 0.00 | 0.01 | 0.01 | 77 | 1006.1 |
| 20260504170645 | 64 | 156 | 2.6 | 5.2 | 0.00 | 0.01 | 0.01 | 78 | 1006.1 |
| 20260504170142 | 63 | 186 | 0.9 | 5.2 | 0.00 | 0.01 | 0.01 | 79 | 1006.3 |
| 20260504151027 | 66 | 180 | 0.9 | 2.6 | 0.00 | 0.00 | 0.00 | 66 | 1007.7 |
| 20260504150525 | 66 | 136 | 1.7 | 3.5 | 0.00 | 0.00 | 0.00 | 66 | 1007.5 |
| 20260504140951 | 67 | 93 | 1.7 | 3.5 | 0.00 | 0.00 | 0.00 | 66 | 1007.7 |
| 20260504140447 | 68 | 152 | 3.5 | 6.1 | 0.00 | 0.00 | 0.00 | 65 | 1007.6 |
| 20260504130412 | 63 | 167 | 2.6 | 6.1 | 0.00 | 0.00 | 0.00 | 72 | 1008.3 |
| 20260504110259 | 61 | 167 | 2.6 | 5.2 | 0.00 | 0.00 | 0.00 | 72 | 1008.4 |
| 20260504100217 | 60 | 118 | 1.7 | 3.5 | 0.00 | 0.00 | 0.00 | 75 | 1008.8 |
| 20260504090139 | 61 | 155 | 2.6 | 3.5 | 0.00 | 0.00 | 0.00 | 74 | 1008.5 |
| 20260504081610 | 60 | 89 | 1.7 | 1.7 | 0.00 | 0.00 | 0.00 | 76 | 1008.7 |
| 20260504081106 | 60 | 23 | 2.6 | 2.6 | 0.00 | 0.00 | 0.00 | 75 | 1008.6 |
| 20260504080603 | 60 | 52 | 0.0 | 1.7 | 0.00 | 0.00 | 0.00 | 75 | 1008.4 |